STARLINK-34577, 64719

Orbit data source: Space-Track

STARLINK-34577, 64719 is a payload satellite owned by SpaceX/Seattle (US) in LEO that was launched on Sat, 28 Jun 2025 UTC via an FALCON 9 launch vehicle from the Air Force Western Test Range (AFWTR). Payload-class satellites include a variety of spacecraft equipped with specific instruments for various scientific and technological missions. These include communications satellites like Starlink; space stations such as the ISS; scientific satellites like the Hubble; Earth observation satellites from companies like Planet Labs, Umbra, and HawkEye 360; GPS; miniature CubeSats for education and research; and military/defense satellites.

Loading next visibility...
Identifier
64719, 2025-142Z
Orbit
LEO
Country
Flag of USUS
Related business
Manufacturer
SpaceX/Seattle
Mission
Operational Commercial Communications
Bus & Motor
STARLINK V2MO, Unknown motor
Mass
575 kg wet, ~530 kg dry
Launch date (UTC)
2025-06-28 (1 year ago)
Launch vehicle
FALCON 9
Launch site
Air Force Western Test Range (AFWTR)
Object type
Payload
Rocket body
Debris
Shape & HBR
Box + 2 Pan, 17.7 m
Radar Cross Section
36.964 m², Large (>1 m²)

Expand to show TLE details & history
Last TLE update: 7 hours ago

TLE from 7 hours ago
0 STARLINK-34577
1 64719U 25142Z   26207.57910311  .00003764  00000-0  32300-3 0  9996
2 64719  70.0020 324.2875 0002864 260.8291  99.2544 14.98335924 60295
Epoch: 2026-07-26T13:53Z
TLE epoch observation values (Epoch: 2026-07-26T13:53:54.508Z)
Latitude
-0.00005°
Longitude
171.53536°
Altitude
574.782 km
Speed
7.574 km/s
True Right ascension
21h 37m 08s
True Declination
0° 00' 00"
Sunlit
Object was in full shadow at epoch
Visualization orbit readout
Latitude
Unknown
Longitude
Unknown
Altitude
Unknown
Speed
Unknown
Apparent Right ascension
Unknown
Apparent Declination
Unknown
Sunlit
N/A
Visualization observer readout
Local Sidereal Time
09:50:52
Azimuth
Unknown
Elevation
Unknown
Doppler factor
Unknown
Orbital elements
Apogee altitude
571.976 km
Perigee altitude
567.996 km
Semi-major axis
6,948.123 km
Eccentricity
0.00029
Inclination
70.002°
RAAN
324.2875°
Arg. of periapsis
260.8291°
True anomaly
99.28679°
Mean anomaly
99.2544°
Eccentric anomaly
99.2706°
Mean motion
3.7475 °/min
Orbital period
96.06 mins
BSTAR
0.000323
Loading maneuver chart data...
Computing Atmospheric mass density...
Loading historical data...
Loading historical data...
Loading historical data...
Loading historical data...
Loading historical data...
Loading historical data...
Loading historical data...

Documentation

Showing up to 5 results
|